This demonstration page uses our WeatherBlox Daily Observations layout. Learn more.

Left ArrowRight Arrow

40.92501, -98.34201

Hourly Observations for June 15, 2015

Temp ( °F °C ) Dew Point ( °F °C ) Humidity (%) Winds ( mph kmh ) Pressure ( in mb ) Visibility ( mi km ) Precip ( " mm )
12:53 am 00:53 Cloudy with Light Rain 66 18.9 64 17.8 93 93 NNE 10 17 29.93 1014 10 16 0.00 0.03
1:53 am 01:53 Cloudy 66 18.9 64 17.8 93 93 WNW 6 9 29.92 1013 10 16 0.01 0.25
2:53 am 02:53 Cloudy with Light Rain 66 18.9 64 17.8 93 93 W 7 11 29.93 1013 9 14 0.02 0.51
3:53 am 03:53 Mostly Cloudy 66 18.9 63 17.2 90 90 N 3 6 29.93 1013 10 16 0.00 0.03
4:53 am 04:53 Mostly Cloudy with Light Rain 65 18.3 62 16.7 90 90 E 13 20 29.93 1014 10 16 0.01 0.25
5:53 am 05:53 Mostly Cloudy with Light Rain 65 18.3 63 17.2 93 93 Calm 29.96 1014 10 16 0.00 0.03
6:53 am 06:53 Mostly Cloudy 65 18.3 63 17.2 93 93 NNW 3 6 29.98 1015 10 16 0.00 0.03
7:40 am 07:40 Mostly Cloudy 66 18.9 64 17.8 93 93 NNW 9 15 29.94 1014 10 16 0.00 0.00
7:53 am 07:53 Cloudy 67 19.4 64 17.8 91 91 NW 9 15 30.00 1016 7 11 0.00 0.00
8:35 am 08:35 Cloudy with Light Rain 65 18.3 63 17.2 93 93 N 21 33 30.00 1016 5 8 0.01 0.25
8:42 am 08:42 Cloudy with Rain 64 18 63 17 94 94 N 16 26 30.00 1016 4 6 0.00 0.00
8:53 am 08:53 Cloudy with Rain 63 17.2 61 16.1 93 93 N 15 24 30.04 1017 3 5 0.04 1.02
9:53 am 09:53 Cloudy with Light Rain 66 18.9 64 17.8 93 93 NNW 10 17 30.05 1018 10 16 0.04 1.02
10:53 am 10:53 Cloudy 68 20 64 17.8 87 87 NNW 16 26 30.05 1018 10 16 0.00 0.03
11:53 am 11:53 Cloudy 70 21.1 64 17.8 82 82 N 16 26 30.06 1018 10 16 0.00 0.00
12:23 pm 12:23 Cloudy 68 20 63 17.2 84 84 NNW 16 26 30.03 1017 10 16 0.00 0.00
12:49 pm 12:49 Cloudy 70 21 63 17 78 78 N 17 28 30.03 1017 10 16 0.00 0.00
12:53 pm 12:53 Cloudy 70 21.1 63 17.2 79 79 N 16 26 30.06 1018 10 16 0.00 0.00
1:53 pm 13:53 Cloudy 70 21.1 63 17.2 79 79 NNE 14 22 30.07 1018 10 16 0.00 0.00
2:53 pm 14:53 Cloudy 69 20.6 63 17.2 81 81 NNE 14 22 30.09 1019 10 16 0.00 0.00
3:53 pm 15:53 Cloudy 69 20.6 63 17.2 81 81 NE 12 19 30.09 1019 10 16 0.00 0.00
4:53 pm 16:53 Cloudy 69 20.6 63 17.2 81 81 NNE 16 26 30.10 1019 10 16 0.00 0.03
5:12 pm 17:12 Mostly Cloudy 70 21 63 17 78 78 NE 15 24 30.06 1018 10 16 0.00 0.00
5:53 pm 17:53 Mostly Sunny 72 22.2 62 16.7 71 71 NE 13 20 30.09 1019 10 16 0.00 0.00
6:53 pm 18:53 Partly Cloudy 70 21.1 59 15 68 68 NNE 15 24 30.10 1019 10 16 0.00 0.00
7:53 pm 19:53 Sunny 70 21.1 57 13.9 64 64 NE 12 19 30.11 1020 10 16 0.00 0.00
8:53 pm 20:53 Sunny 67 19.4 58 14.4 73 73 NE 8 13 30.14 1021 10 16 0.00 0.00
9:53 pm 21:53 Clear 62 16.7 57 13.9 84 84 NNE 5 7 30.16 1021 10 16 0.00 0.00
10:53 pm 22:53 Clear 61 16.1 56 13.3 84 84 N 5 7 30.19 1022 10 16 0.00 0.00
11:53 pm 23:53 Clear 60 15.6 55 12.8 84 84 N 5 7 30.20 1023 10 16 0.00 0.00

Powered by AerisWeather